Flag for Austria

Past Weather in Feldkirchen in Kärnten, Carinthia, Austria — Yesterday and Last 2 Weeks

Now
47 °F

Passing clouds.


Feels Like: 47 °F
Forecast: 66 / 46 °F
Wind: 2 mph from North

Location: Klagenfurt-Flughafen

Current Time: Oct 22, 2019 at 8:06:21 am

Latest Report: Oct 22, 2019 at 7:00 am


Visibility: 9 mi

Pressure: 30.26 "Hg (28.34 "Hg at 541m altitude)

Humidity: 95%

Dew Point: 46 °F

Location of Feldkirchen in KärntenLocation

Past Weather in Feldkirchen in Kärnten — Graph

°F

Feldkirchen in Kärnten Temperature Yesterday

Maximum temperature yesterday: 76 °F (at 3:00 pm)
Minimum temperature yesterday: 51 °F (at 6:00 am)
Average temperature yesterday: 61 °F

High & Low Weather Summary for the Past Weeks

 TemperatureHumidityPressure
High76 °F (Oct 21, 3:00 pm)99% (Oct 15, 8:00 am)30.34 "Hg (Oct 15, 8:00 am)
Low40 °F (Oct 9, 7:00 am)48% (Oct 13, 3:00 pm)29.85 "Hg (Oct 16, 4:00 am)
Average54 °F80%30.08 "Hg
* Reported Oct 7 6:00 am — Oct 22 6:00 am, Feldkirchen in Kärnten. Weather by CustomWeather, © 2019

Note: Actual official high and low records may vary slightly from our data, if they occured in-between our weather recording intervals... More about our weather records

Advertising

Feldkirchen in Kärnten Weather History for the Previous 24 Hours

Scroll right to see more
 ConditionsComfort  
Time TempWeatherWind HumidityBarometerVisibility
6:00 am
Tue, Oct 22
48 °FPassing clouds.3 mph96%30.25 "Hg12 mi
5:00 am49 °FCool.2 mph95%30.24 "Hg8 mi
4:00 am49 °FPassing clouds.3 mph94%30.24 "Hg11 mi
3:00 am51 °FCool.2 mph94%30.24 "Hg9 mi
1:00 am53 °FCool.2 mph91%30.22 "Hg13 mi
12:00 am53 °FCool.2 mph89%30.22 "Hg14 mi
11:00 pm
Mon, Oct 21
54 °FPassing clouds.1 mph88%30.21 "Hg10 mi
10:00 pm56 °FPassing clouds.1 mph85%30.19 "Hg17 mi
9:00 pm59 °FPassing clouds.1 mph80%30.17 "Hg19 mi
8:00 pm61 °FPassing clouds.1 mph76%30.15 "Hg16 mi
7:00 pm67 °FPassing clouds.2 mph61%30.12 "Hg22 mi
6:00 pm72 °FPassing clouds.2 mph55%30.09 "Hg28 mi
3:00 pm76 °FPassing clouds.5 mph48%30.09 "Hg34 mi
2:00 pm76 °FPassing clouds.5 mph49%30.09 "Hg28 mi
1:00 pm74 °FScattered clouds.3 mph51%30.10 "Hg28 mi
12:00 pm68 °FScattered clouds.1 mph59%30.13 "Hg25 mi
11:00 am66 °FScattered clouds.1 mph60%30.15 "Hg22 mi
10:00 am60 °FScattered clouds.2 mph72%30.16 "Hg22 mi
9:00 am55 °FPartly sunny.2 mph80%30.16 "Hg19 mi
8:00 am52 °FPartly sunny.3 mph87%30.16 "Hg17 mi
Weather by CustomWeather, © 2019

See weather overview